TimeMDT,TemperatureF,Dew PointF,Humidity,Sea Level PressureIn,VisibilityMPH,Wind Direction,Wind SpeedMPH,Gust SpeedMPH,PrecipitationIn,Events,Conditions,WindDirDegrees,DateUTC
12:16 AM,68.0,50.0,52,29.95,10.0,South,3.5,-,N/A,,Clear,180,2013-07-06 06:16:00
12:36 AM,68.0,50.0,52,29.95,10.0,Calm,Calm,-,N/A,Thunderstorm,Clear,0,2013-07-06 06:36:00
12:56 AM,68.0,50.0,52,29.95,10.0,SSW,3.5,-,N/A,,Clear,200,2013-07-06 06:56:00
1:16 AM,66.2,50.0,56,29.94,10.0,SSW,4.6,-,N/A,,Clear,210,2013-07-06 07:16:00
1:36 AM,68.0,50.0,52,29.94,10.0,Calm,Calm,-,N/A,,Clear,0,2013-07-06 07:36:00
1:56 AM,64.4,51.8,64,29.94,10.0,WSW,5.8,9.2,N/A,,Clear,250,2013-07-06 07:56:00
2:16 AM,68.0,48.2,49,29.94,10.0,Calm,Calm,-,N/A,Thunderstorm,Clear,0,2013-07-06 08:16:00
2:35 AM,68.0,48.2,49,29.95,10.0,NW,6.9,-,N/A,,Clear,310,2013-07-06 08:35:00
2:55 AM,71.6,42.8,35,29.95,10.0,NNW,8.1,-,N/A,Thunderstorm,Clear,340,2013-07-06 08:55:00
3:16 AM,73.4,42.8,33,29.99,10.0,NW,18.4,29.9,N/A,,Scattered Clouds,320,2013-07-06 09:16:00
3:36 AM,73.4,41.0,31,29.99,10.0,NW,23.0,34.5,N/A,Rain-Thunderstorm,Light Thunderstorms and Rain,320,2013-07-06 09:36:00
3:56 AM,73.4,41.0,31,29.98,10.0,NW,28.8,38.0,N/A,,Clear,320,2013-07-06 09:56:00
4:15 AM,71.6,42.8,35,29.99,10.0,NNW,20.7,29.9,N/A,,Clear,330,2013-07-06 10:15:00
4:35 AM,71.6,41.0,33,29.98,10.0,WNW,29.9,38.0,N/A,,Clear,300,2013-07-06 10:35:00
4:56 AM,71.6,41.0,33,29.97,10.0,WNW,35.7,40.3,N/A,,Clear,300,2013-07-06 10:56:00
5:15 AM,71.6,41.0,33,29.97,10.0,NW,13.8,31.1,N/A,,Clear,310,2013-07-06 11:15:00
5:36 AM,71.6,41.0,33,29.97,10.0,WNW,16.1,-,N/A,,Clear,290,2013-07-06 11:36:00
5:47 AM,71.6,41.0,33,29.98,50.0,SSW,8.1,-,N/A,,Mostly Cloudy,210,2013-07-06 11:47:00
5:56 AM,69.8,41.0,35,29.99,10.0,South,9.2,-,N/A,,Clear,190,2013-07-06 11:56:00
6:48 AM,73.4,41.0,31,29.99,50.0,Variable,3.5,-,N/A,,Mostly Cloudy,0,2013-07-06 12:48:00
7:52 AM,80.6,39.2,23,29.99,50.0,West,15.0,-,N/A,,Scattered Clouds,280,2013-07-06 13:52:00
8:45 AM,82.4,39.2,21,30.01,50.0,North,3.5,-,N/A,,Scattered Clouds,360,2013-07-06 14:45:00
9:47 AM,84.2,39.2,20,30.01,50.0,Variable,5.8,-,N/A,,Mostly Cloudy,0,2013-07-06 15:47:00
10:46 AM,86.0,39.2,19,30.02,50.0,East,4.6,-,N/A,,Mostly Cloudy,80,2013-07-06 16:46:00
11:47 AM,-9999,37.4,N/A,30.03,40.0,NNW,8.1,-,N/A,,Mostly Cloudy,340,2013-07-06 17:47:00
12:45 PM,91.4,32.0,12,30.02,30.0,NW,11.5,23.0,N/A,,Mostly Cloudy,310,2013-07-06 18:45:00
1:45 PM,87.8,35.6,16,30.02,30.0,NW,12.7,19.6,N/A,,Mostly Cloudy,320,2013-07-06 19:45:00
3:50 PM,78.8,44.6,30,30.00,25.0,SE,12.7,18.4,N/A,,Overcast,140,2013-07-06 21:50:00
3:53 PM,73.4,48.2,41,30.04,25.0,SW,11.5,-,N/A,,Overcast,220,2013-07-06 21:53:00
4:52 PM,80.6,48.2,32,30.03,40.0,SSW,9.2,-,N/A,,Mostly Cloudy,200,2013-07-06 22:52:00
5:50 PM,82.4,48.2,30,30.02,40.0,South,5.8,-,N/A,,Mostly Cloudy,190,2013-07-06 23:50:00
6:45 PM,78.8,50.0,36,30.02,40.0,SSW,5.8,-,N/A,,Mostly Cloudy,200,2013-07-07 00:45:00
7:45 PM,80.6,44.6,28,30.04,40.0,East,8.1,-,N/A,,Mostly Cloudy,90,2013-07-07 01:45:00
8:53 PM,75.2,42.8,31,30.06,30.0,ESE,6.9,-,N/A,,Scattered Clouds,110,2013-07-07 02:53:00
11:15 PM,69.8,48.2,46,30.08,10.0,SSW,5.8,-,N/A,,Clear,210,2013-07-07 05:15:00
11:36 PM,68.0,48.2,49,30.07,10.0,SW,3.5,-,N/A,,Clear,230,2013-07-07 05:36:00
11:56 PM,66.2,48.2,52,30.06,10.0,West,4.6,-,N/A,Thunderstorm,Clear,260,2013-07-07 05:56:00